^^
Station Historical Data
Daily Summary for October 22, 2021 Units:  English    Metric   Both
Daily Weekly Monthly Yearly
  High: Low: Average:
Temperature: 47.5 °F 40.5 °F 44.5 °F
Dew Point: 38.8 °F 34.4 °F 36.1 °F
Humidity: 80% 63% 72%
Wind Speed: 7mph 0mph 2.8mph
Wind Gust: 11mph - -
Wind- - SSW
Pressure: 30.04 in 29.92 in -
Precipitation: 0.00 in    
 
 
Tabular Data for October 22, 2021
Time Temperature Dew Point Pressure Wind Wind Speed Wind Gust Humidity Rainfall Rate (Hourly) solar
00:00 45.2 °F 38.1 °F 29.92 in NNW 6 mph 6 mph 76% 0.00 in 0 W/m2
00:05 45.2 °F 38.1 °F 29.93 in NE 5 mph 6 mph 76% 0.00 in 0 W/m2
00:10 45.1 °F 38 °F 29.93 in WNW 5 mph 6 mph 76% 0.00 in 0 W/m2
00:15 45.1 °F 38 °F 29.93 in SE 5 mph 6 mph 76% 0.00 in 0 W/m2
00:20 44.9 °F 37.8 °F 29.93 in North 5 mph 5 mph 76% 0.00 in 0 W/m2
00:25 44.9 °F 38.1 °F 29.93 in WSW 5 mph 5 mph 77% 0.00 in 0 W/m2
00:30 44.8 °F 37.7 °F 29.93 in NW 4 mph 4 mph 76% 0.00 in 0 W/m2
00:35 44.8 °F 37.7 °F 29.93 in ENE 5 mph 5 mph 76% 0.00 in 0 W/m2
00:40 44.6 °F 37.5 °F 29.93 in WNW 6 mph 6 mph 76% 0.00 in 0 W/m2
00:45 44.6 °F 37.5 °F 29.93 in WSW 5 mph 6 mph 76% 0.00 in 0 W/m2
00:50 44.5 °F 37.4 °F 29.93 in NNE 4 mph 4 mph 76% 0.00 in 0 W/m2
00:55 44.4 °F 37.3 °F 29.93 in NW 5 mph 5 mph 76% 0.00 in 0 W/m2
01:00 44.3 °F 37.2 °F 29.93 in NNW 5 mph 5 mph 76% 0.00 in 0 W/m2
01:05 44.3 °F 37.2 °F 29.93 in NNW 5 mph 5 mph 76% 0.00 in 0 W/m2
01:10 44.3 °F 37.5 °F 29.93 in North 4 mph 4 mph 77% 0.00 in 0 W/m2
01:15 44.2 °F 37.1 °F 29.93 in NW 4 mph 5 mph 76% 0.00 in 0 W/m2
01:20 44.1 °F 37 °F 29.93 in NW 5 mph 6 mph 76% 0.00 in 0 W/m2
01:25 44 °F 36.6 °F 29.93 in NNW 5 mph 6 mph 75% 0.00 in 0 W/m2
01:30 44 °F 36.9 °F 29.93 in SW 5 mph 5 mph 76% 0.00 in 0 W/m2
01:35 44 °F 36.9 °F 29.94 in WNW 6 mph 6 mph 76% 0.00 in 0 W/m2
01:40 44 °F 37.3 °F 29.94 in NNW 5 mph 6 mph 77% 0.00 in 0 W/m2
01:45 44 °F 37.3 °F 29.94 in WNW 5 mph 6 mph 77% 0.00 in 0 W/m2
01:50 43.9 °F 36.8 °F 29.94 in WNW 6 mph 6 mph 76% 0.00 in 0 W/m2
01:55 43.9 °F 36.8 °F 29.94 in NNW 6 mph 6 mph 76% 0.00 in 0 W/m2
02:00 43.8 °F 36.7 °F 29.94 in NNE 5 mph 8 mph 76% 0.00 in 0 W/m2
02:05 43.9 °F 36.8 °F 29.94 in NW 5 mph 8 mph 76% 0.00 in 0 W/m2
02:10 43.9 °F 37.2 °F 29.94 in NNW 5 mph 5 mph 77% 0.00 in 0 W/m2
02:20 43.8 °F 36.7 °F 29.94 in North 4 mph 5 mph 76% 0.00 in 0 W/m2
02:25 43.7 °F 37 °F 29.94 in North 4 mph 5 mph 77% 0.00 in 0 W/m2
02:30 43.8 °F 36.7 °F 29.94 in NW 5 mph 6 mph 76% 0.00 in 0 W/m2
02:35 43.7 °F 36.6 °F 29.94 in East 5 mph 6 mph 76% 0.00 in 0 W/m2
02:40 43.8 °F 36.7 °F 29.94 in NNW 5 mph 5 mph 76% 0.00 in 0 W/m2
02:45 43.8 °F 36.7 °F 29.94 in NNW 4 mph 5 mph 76% 0.00 in 0 W/m2
02:50 43.8 °F 36.4 °F 29.95 in North 5 mph 5 mph 75% 0.00 in 0 W/m2
02:55 43.8 °F 36.4 °F 29.95 in WSW 5 mph 5 mph 75% 0.00 in 0 W/m2
03:00 43.9 °F 36.8 °F 29.95 in NW 4 mph 4 mph 76% 0.00 in 0 W/m2
03:10 43.9 °F 36.8 °F 29.95 in NW 4 mph 11 mph 76% 0.00 in 0 W/m2
03:15 43.8 °F 36.4 °F 29.95 in WNW 5 mph 11 mph 75% 0.00 in 0 W/m2
03:20 43.7 °F 36 °F 29.95 in West 7 mph 7 mph 74% 0.00 in 0 W/m2
03:25 43.6 °F 36.2 °F 29.95 in SE 6 mph 7 mph 75% 0.00 in 0 W/m2
03:30 43.6 °F 36.2 °F 29.95 in NNW 5 mph 5 mph 75% 0.00 in 0 W/m2
03:35 43.4 °F 35.7 °F 29.95 in NW 4 mph 5 mph 74% 0.00 in 0 W/m2
03:40 43.4 °F 35.7 °F 29.95 in WNW 4 mph 4 mph 74% 0.00 in 0 W/m2
03:45 43.4 °F 35.7 °F 29.95 in NNW 4 mph 6 mph 74% 0.00 in 0 W/m2
03:50 43.4 °F 35.7 °F 29.96 in SSE 4 mph 4 mph 74% 0.00 in 0 W/m2
03:55 43.3 °F 35.6 °F 29.96 in NW 4 mph 8 mph 74% 0.00 in 0 W/m2
04:00 43.3 °F 35.6 °F 29.96 in NNW 5 mph 6 mph 74% 0.00 in 0 W/m2
04:05 43.2 °F 35.8 °F 29.96 in West 6 mph 6 mph 75% 0.00 in 0 W/m2
04:10 43 °F 35.6 °F 29.96 in NNW 5 mph 7 mph 75% 0.00 in 0 W/m2
04:15 42.9 °F 35.5 °F 29.96 in North 5 mph 7 mph 75% 0.00 in 0 W/m2
04:20 42.8 °F 35.8 °F 29.96 in WNW 5 mph 5 mph 76% 0.00 in 0 W/m2
04:25 42.7 °F 35.7 °F 29.96 in WNW 4 mph 5 mph 76% 0.00 in 0 W/m2
04:30 42.6 °F 35.6 °F 29.96 in NW 3 mph 3 mph 76% 0.00 in 0 W/m2
04:35 42.5 °F 35.5 °F 29.97 in West 4 mph 4 mph 76% 0.00 in 0 W/m2
04:40 42.4 °F 35.7 °F 29.96 in WSW 4 mph 4 mph 77% 0.00 in 0 W/m2
04:45 42.4 °F 35.7 °F 29.96 in NNW 4 mph 5 mph 77% 0.00 in 0 W/m2
04:50 42.3 °F 35.6 °F 29.96 in North 3 mph 5 mph 77% 0.00 in 0 W/m2
04:55 42.3 °F 35.6 °F 29.97 in WNW 4 mph 5 mph 77% 0.00 in 0 W/m2
05:00 42.2 °F 35.5 °F 29.97 in NW 4 mph 4 mph 77% 0.00 in 0 W/m2
05:05 42.2 °F 35.5 °F 29.97 in East 3 mph 4 mph 77% 0.00 in 0 W/m2
05:10 42.1 °F 35.4 °F 29.98 in NW 3 mph 3 mph 77% 0.00 in 0 W/m2
05:15 42.1 °F 35.4 °F 29.98 in North 3 mph 7 mph 77% 0.00 in 0 W/m2
05:20 42 °F 35.3 °F 29.98 in NNW 4 mph 9 mph 77% 0.00 in 0 W/m2
05:25 41.9 °F 34.9 °F 29.98 in NW 4 mph 9 mph 76% 0.00 in 0 W/m2
05:30 41.8 °F 35.1 °F 29.98 in NW 4 mph 4 mph 77% 0.00 in 0 W/m2
05:35 41.7 °F 35 °F 29.98 in WNW 4 mph 4 mph 77% 0.00 in 0 W/m2
05:40 41.7 °F 35 °F 29.98 in WNW 4 mph 4 mph 77% 0.00 in 0 W/m2
05:45 41.6 °F 34.9 °F 29.98 in NW 4 mph 4 mph 77% 0.00 in 0 W/m2
05:50 41.6 °F 35.2 °F 29.98 in WNW 4 mph 4 mph 78% 0.00 in 0 W/m2
05:55 41.5 °F 34.8 °F 29.98 in North 4 mph 6 mph 77% 0.00 in 0 W/m2
06:00 41.4 °F 34.7 °F 29.98 in NNW 4 mph 4 mph 77% 0.00 in 0 W/m2
06:05 41.3 °F 34.6 °F 29.98 in NNW 4 mph 4 mph 77% 0.00 in 0 W/m2
06:10 41.3 °F 34.6 °F 29.98 in West 3 mph 3 mph 77% 0.00 in 0 W/m2
06:15 41.1 °F 34.4 °F 29.99 in NW 4 mph 4 mph 77% 0.00 in 0 W/m2
06:20 41.1 °F 34.4 °F 29.99 in NW 4 mph 4 mph 77% 0.00 in 0 W/m2
06:25 41.1 °F 34.8 °F 29.99 in NW 4 mph 4 mph 78% 0.00 in 0 W/m2
06:30 41.1 °F 34.8 °F 29.99 in NNW 4 mph 5 mph 78% 0.00 in 0 W/m2
06:35 41 °F 35 °F 29.99 in NW 4 mph 6 mph 79% 0.00 in 0 W/m2
06:40 41 °F 34.7 °F 29.99 in North 4 mph 4 mph 78% 0.00 in 0 W/m2
06:45 41 °F 35 °F 29.99 in NNW 4 mph 4 mph 79% 0.00 in 0 W/m2
06:50 40.9 °F 34.9 °F 29.99 in WNW 4 mph 4 mph 79% 0.00 in 0 W/m2
06:55 40.9 °F 34.9 °F 29.99 in NW 4 mph 5 mph 79% 0.00 in 0 W/m2
07:00 40.9 °F 34.9 °F 29.99 in North 3 mph 5 mph 79% 0.00 in 0 W/m2
07:05 40.8 °F 34.8 °F 29.99 in WNW 4 mph 5 mph 79% 0.00 in 0 W/m2
07:10 40.8 °F 34.8 °F 29.99 in NNW 4 mph 8 mph 79% 0.00 in 0 W/m2
07:15 40.8 °F 35.1 °F 30.00 in NW 4 mph 8 mph 80% 0.00 in 0 W/m2
07:20 40.7 °F 34.7 °F 30.00 in NW 5 mph 5 mph 79% 0.00 in 0 W/m2
07:25 40.6 °F 34.6 °F 30.00 in NNE 5 mph 5 mph 79% 0.00 in 0 W/m2
07:30 40.6 °F 34.9 °F 30.00 in NW 4 mph 5 mph 80% 0.00 in 0 W/m2
07:35 40.6 °F 34.9 °F 30.00 in North 4 mph 5 mph 80% 0.00 in 0 W/m2
07:40 40.5 °F 34.8 °F 30.00 in NW 4 mph 4 mph 80% 0.00 in 0 W/m2
07:45 40.5 °F 34.8 °F 30.00 in NNW 4 mph 4 mph 80% 0.00 in 0 W/m2
07:50 40.5 °F 34.8 °F 30.01 in NNW 4 mph 6 mph 80% 0.00 in 5 W/m2
07:55 40.5 °F 34.8 °F 30.01 in NNW 4 mph 6 mph 80% 0.00 in 0 W/m2
08:00 40.5 °F 34.8 °F 30.01 in WNW 4 mph 4 mph 80% 0.00 in 5 W/m2
08:05 40.5 °F 34.8 °F 30.01 in NNW 4 mph 4 mph 80% 0.00 in 7 W/m2
08:10 40.5 °F 34.8 °F 30.01 in NNE 3 mph 5 mph 80% 0.00 in 9 W/m2
08:15 40.6 °F 34.9 °F 30.01 in North 4 mph 5 mph 80% 0.00 in 14 W/m2
08:20 40.6 °F 34.9 °F 30.01 in WNW 4 mph 4 mph 80% 0.00 in 14 W/m2
08:25 40.5 °F 34.8 °F 30.01 in North 4 mph 4 mph 80% 0.00 in 18 W/m2
08:30 40.6 °F 34.9 °F 30.02 in NE 3 mph 3 mph 80% 0.00 in 21 W/m2
08:35 40.6 °F 34.9 °F 30.01 in SE 3 mph 3 mph 80% 0.00 in 25 W/m2
08:40 40.7 °F 35 °F 30.02 in NNW 4 mph 8 mph 80% 0.00 in 39 W/m2
08:45 40.7 °F 34.7 °F 30.02 in NE 5 mph 8 mph 79% 0.00 in 32 W/m2
08:50 40.8 °F 35.1 °F 30.02 in ENE 4 mph 5 mph 80% 0.00 in 30 W/m2
08:55 40.8 °F 35.1 °F 30.02 in NNW 3 mph 5 mph 80% 0.00 in 32 W/m2
09:00 40.9 °F 35.2 °F 30.02 in North 4 mph 7 mph 80% 0.00 in 35 W/m2
09:05 40.9 °F 35.2 °F 30.02 in North 5 mph 7 mph 80% 0.00 in 26 W/m2
09:10 41 °F 35.3 °F 30.02 in North 5 mph 5 mph 80% 0.00 in 33 W/m2
09:15 41.2 °F 35.5 °F 30.02 in NNW 4 mph 5 mph 80% 0.00 in 44 W/m2
09:20 41.3 °F 35.3 °F 30.02 in North 4 mph 6 mph 79% 0.00 in 53 W/m2
09:25 41.4 °F 35.4 °F 30.02 in North 4 mph 6 mph 79% 0.00 in 33 W/m2
09:30 41.5 °F 35.2 °F 30.03 in NNE 4 mph 4 mph 78% 0.00 in 40 W/m2
09:35 41.5 °F 35.2 °F 30.03 in NNW 4 mph 4 mph 78% 0.00 in 60 W/m2
09:40 41.6 °F 35.2 °F 30.03 in West 4 mph 4 mph 78% 0.00 in 72 W/m2
09:45 41.8 °F 35.4 °F 30.03 in NW 4 mph 4 mph 78% 0.00 in 76 W/m2
09:50 41.9 °F 35.2 °F 30.03 in NE 3 mph 3 mph 77% 0.00 in 67 W/m2
09:55 42.2 °F 35.8 °F 30.03 in ENE 3 mph 3 mph 78% 0.00 in 56 W/m2
10:00 42.8 °F 35.8 °F 30.03 in NE 3 mph 3 mph 76% 0.00 in 62 W/m2
10:05 43 °F 35.6 °F 30.03 in NW 3 mph 3 mph 75% 0.00 in 51 W/m2
10:10 43.4 °F 35.7 °F 30.03 in NNW 3 mph 3 mph 74% 0.00 in 97 W/m2
10:15 43.4 °F 35.3 °F 30.04 in NNW 3 mph 3 mph 73% 0.00 in 114 W/m2
10:20 43.3 °F 35.2 °F 30.04 in NW 3 mph 3 mph 73% 0.00 in 67 W/m2
10:25 43.6 °F 35.5 °F 30.04 in NNW 3 mph 3 mph 73% 0.00 in 90 W/m2
10:30 43.9 °F 35.8 °F 30.04 in NNE 3 mph 4 mph 73% 0.00 in 81 W/m2
10:35 43.9 °F 35.5 °F 30.03 in NNW 3 mph 4 mph 72% 0.00 in 91 W/m2
10:40 44 °F 35.6 °F 30.04 in NE 3 mph 3 mph 72% 0.00 in 67 W/m2
10:45 44 °F 35.6 °F 30.04 in NNW 3 mph 3 mph 72% 0.00 in 56 W/m2
10:50 44 °F 35.6 °F 30.04 in NE 3 mph 3 mph 72% 0.00 in 76 W/m2
10:55 44.1 °F 35.6 °F 30.03 in North 3 mph 3 mph 72% 0.00 in 65 W/m2
11:00 44.1 °F 35.6 °F 30.03 in NNW 3 mph 3 mph 72% 0.00 in 100 W/m2
11:05 44.1 °F 35.6 °F 30.03 in NNW 3 mph 5 mph 72% 0.00 in 100 W/m2
11:10 44 °F 35.6 °F 30.03 in WNW 3 mph 3 mph 72% 0.00 in 113 W/m2
11:15 44.1 °F 35.6 °F 30.03 in NNE 3 mph 3 mph 72% 0.00 in 102 W/m2
11:20 44.2 °F 35.7 °F 30.04 in NNW 4 mph 5 mph 72% 0.00 in 109 W/m2
11:25 44.2 °F 35.4 °F 30.04 in NNW 4 mph 5 mph 71% 0.00 in 169 W/m2
11:30 44.2 °F 35.7 °F 30.04 in NE 3 mph 3 mph 72% 0.00 in 111 W/m2
11:40 43.9 °F 35.1 °F 30.04 in NW 4 mph 4 mph 71% 0.00 in 90 W/m2
11:45 44.2 °F 35.7 °F 30.04 in NW 4 mph 4 mph 72% 0.00 in 134 W/m2
11:50 44.5 °F 35.7 °F 30.04 in ENE 3 mph 3 mph 71% 0.00 in 186 W/m2
11:55 44.5 °F 35.7 °F 30.04 in NNW 3 mph 6 mph 71% 0.00 in 114 W/m2
12:00 44.4 °F 35.9 °F 30.04 in NNW 3 mph 3 mph 72% 0.00 in 570 W/m2
12:05 45 °F 36.5 °F 30.04 in WNW 3 mph 3 mph 72% 0.00 in 615 W/m2
12:10 44.9 °F 35.7 °F 30.04 in NNW 4 mph 7 mph 70% 0.00 in 626 W/m2
12:15 44.9 °F 35.7 °F 30.04 in NNE 4 mph 7 mph 70% 0.00 in 638 W/m2
12:20 45 °F 35.8 °F 30.04 in North 3 mph 3 mph 70% 0.00 in 137 W/m2
12:25 45.1 °F 35.9 °F 30.04 in SSE 2 mph 3 mph 70% 0.00 in 603 W/m2
12:30 45.2 °F 36.4 °F 30.04 in NW 2 mph 2 mph 71% 0.00 in 631 W/m2
12:35 45.4 °F 36.2 °F 30.04 in North 3 mph 3 mph 70% 0.00 in 318 W/m2
12:40 45.4 °F 35.8 °F 30.04 in NW 3 mph 3 mph 69% 0.00 in 594 W/m2
12:45 45.4 °F 35.8 °F 30.04 in NNW 3 mph 4 mph 69% 0.00 in 568 W/m2
12:50 45.6 °F 35.6 °F 30.04 in North 3 mph 3 mph 68% 0.00 in 601 W/m2
12:55 45.7 °F 35.7 °F 30.03 in NNE 2 mph 3 mph 68% 0.00 in 610 W/m2
13:00 45.8 °F 35.8 °F 30.03 in NNW 2 mph 2 mph 68% 0.00 in 598 W/m2
13:05 45.9 °F 35.9 °F 30.03 in SSE 3 mph 3 mph 68% 0.00 in 557 W/m2
13:10 45.9 °F 35.6 °F 30.03 in NNW 2 mph 2 mph 67% 0.00 in 594 W/m2
13:15 45.6 °F 35.6 °F 30.03 in NE 2 mph 2 mph 68% 0.00 in 592 W/m2
13:20 46.1 °F 36.1 °F 30.03 in North 3 mph 3 mph 68% 0.00 in 599 W/m2
13:25 46.1 °F 35.7 °F 30.02 in NNW 3 mph 4 mph 67% 0.00 in 573 W/m2
13:30 46.1 °F 35.7 °F 30.02 in WNW 3 mph 3 mph 67% 0.00 in 561 W/m2
13:35 46.2 °F 36.2 °F 30.02 in NNW 3 mph 3 mph 68% 0.00 in 605 W/m2
13:40 46.3 °F 35.9 °F 30.02 in NW 3 mph 4 mph 67% 0.00 in 612 W/m2
13:45 46.1 °F 35.7 °F 30.02 in NNE 3 mph 4 mph 67% 0.00 in 552 W/m2
13:50 46.8 °F 36.4 °F 30.02 in North 3 mph 3 mph 67% 0.00 in 687 W/m2
13:55 47.3 °F 36.5 °F 30.02 in North 2 mph 3 mph 66% 0.00 in 622 W/m2
14:00 46.5 °F 35.7 °F 30.02 in ENE 2 mph 2 mph 66% 0.00 in 418 W/m2
14:05 46.5 °F 36.1 °F 30.01 in North 2 mph 3 mph 67% 0.00 in 512 W/m2
14:10 46.3 °F 35.2 °F 30.01 in NNW 3 mph 3 mph 65% 0.00 in 527 W/m2
14:15 46.5 °F 36.1 °F 30.01 in NNW 3 mph 5 mph 67% 0.00 in 373 W/m2
14:20 46.1 °F 35.4 °F 30.01 in NNE 3 mph 3 mph 66% 0.00 in 269 W/m2
14:25 45.9 °F 35.2 °F 30.01 in NNE 3 mph 3 mph 66% 0.00 in 360 W/m2
14:30 46.1 °F 35.4 °F 30.01 in NNW 3 mph 3 mph 66% 0.00 in 452 W/m2
14:35 46.2 °F 35.5 °F 30.01 in NNE 3 mph 3 mph 66% 0.00 in 496 W/m2
14:40 46.7 °F 35.6 °F 30.01 in East 2 mph 2 mph 65% 0.00 in 547 W/m2
14:45 47 °F 35.8 °F 30.01 in East 2 mph 2 mph 65% 0.00 in 529 W/m2
14:50 46.9 °F 35.4 °F 30.01 in ENE 2 mph 2 mph 64% 0.00 in 515 W/m2
14:55 47.1 °F 35.9 °F 30.01 in North 2 mph 4 mph 65% 0.00 in 478 W/m2
15:00 47.2 °F 35.6 °F 30.01 in NE 2 mph 2 mph 64% 0.00 in 445 W/m2
15:05 47.3 °F 36.1 °F 30.01 in SW 2 mph 2 mph 65% 0.00 in 399 W/m2
15:10 47.5 °F 36.3 °F 30.01 in NNW 2 mph 2 mph 65% 0.00 in 366 W/m2
15:15 47.5 °F 35.9 °F 30.00 in NNE 2 mph 2 mph 64% 0.00 in 227 W/m2
15:20 47.5 °F 35.9 °F 30.00 in NNE 2 mph 2 mph 64% 0.00 in 232 W/m2
15:25 47.5 °F 35.9 °F 30.00 in North 2 mph 2 mph 64% 0.00 in 211 W/m2
15:30 47.5 °F 35.9 °F 30.00 in North 1 mph 2 mph 64% 0.00 in 294 W/m2
15:35 47.5 °F 35.9 °F 30.00 in NNW 2 mph 2 mph 64% 0.00 in 272 W/m2
15:40 47.4 °F 35.4 °F 30.00 in NW 2 mph 2 mph 63% 0.00 in 213 W/m2
15:45 47.4 °F 35.4 °F 30.00 in NNW 2 mph 3 mph 63% 0.00 in 199 W/m2
15:50 47.4 °F 35.4 °F 30.00 in NNE 1 mph 1 mph 63% 0.00 in 204 W/m2
15:55 47.4 °F 35.4 °F 30.00 in East 2 mph 2 mph 63% 0.00 in 190 W/m2
16:00 47.4 °F 35.8 °F 30.00 in NNW 1 mph 2 mph 64% 0.00 in 188 W/m2
16:05 47.4 °F 35.8 °F 30.00 in ENE 1 mph 2 mph 64% 0.00 in 174 W/m2
16:10 47.4 °F 35.8 °F 30.00 in NNE 2 mph 2 mph 64% 0.00 in 162 W/m2
16:15 47.4 °F 35.8 °F 30.00 in NNE 2 mph 2 mph 64% 0.00 in 156 W/m2
16:20 47.4 °F 35.4 °F 30.01 in North 1 mph 1 mph 63% 0.00 in 155 W/m2
16:25 47.4 °F 35.4 °F 30.01 in NW 1 mph 2 mph 63% 0.00 in 171 W/m2
16:30 47.3 °F 35.3 °F 30.01 in NNW 1 mph 2 mph 63% 0.00 in 162 W/m2
16:35 47.4 °F 35.4 °F 30.01 in NNW 1 mph 2 mph 63% 0.00 in 181 W/m2
16:40 47.4 °F 35.8 °F 30.01 in NE 2 mph 2 mph 64% 0.00 in 179 W/m2
16:45 47.4 °F 35.8 °F 30.01 in NE 1 mph 2 mph 64% 0.00 in 160 W/m2
16:50 47.4 °F 35.4 °F 30.01 in East 1 mph 2 mph 63% 0.00 in 156 W/m2
16:55 47.4 °F 35.8 °F 30.01 in NW 1 mph 2 mph 64% 0.00 in 163 W/m2
17:00 47.5 °F 36.3 °F 30.01 in West 1 mph 1 mph 65% 0.00 in 171 W/m2
17:05 47.5 °F 35.9 °F 30.01 in East 1 mph 2 mph 64% 0.00 in 218 W/m2
17:10 47.5 °F 35.9 °F 30.01 in NE 1 mph 1 mph 64% 0.00 in 209 W/m2
17:15 47.5 °F 35.9 °F 30.01 in ENE 1 mph 1 mph 64% 0.00 in 123 W/m2
17:20 47.4 °F 35.8 °F 30.01 in NNE 1 mph 1 mph 64% 0.00 in 81 W/m2
17:25 47.5 °F 36.3 °F 30.01 in NNW 1 mph 1 mph 65% 0.00 in 67 W/m2
17:30 47.4 °F 36.2 °F 30.01 in North 1 mph 1 mph 65% 0.00 in 54 W/m2
17:35 47.3 °F 36.1 °F 30.01 in Calm   1 mph 65% 0.00 in 49 W/m2
17:40 47.2 °F 36 °F 30.01 in Calm     65% 0.00 in 46 W/m2
17:45 47.1 °F 35.9 °F 30.01 in Calm     65% 0.00 in 39 W/m2
17:50 47 °F 36.2 °F 30.01 in Calm     66% 0.00 in 35 W/m2
17:55 46.9 °F 36.5 °F 30.01 in Calm   1 mph 67% 0.00 in 32 W/m2
18:00 46.8 °F 36.8 °F 30.01 in Calm     68% 0.00 in 25 W/m2
18:05 46.8 °F 37.2 °F 30.01 in Calm     69% 0.00 in 21 W/m2
18:10 46.7 °F 37.4 °F 30.01 in Calm     70% 0.00 in 18 W/m2
18:15 46.5 °F 36.9 °F 30.01 in Calm   1 mph 69% 0.00 in 14 W/m2
18:20 46.4 °F 37.1 °F 30.00 in Calm     70% 0.00 in 11 W/m2
18:30 46.2 °F 37 °F 30.01 in Calm     70% 0.00 in 5 W/m2
18:35 46 °F 36.8 °F 30.01 in Calm   1 mph 70% 0.00 in 0 W/m2
18:40 46 °F 37.1 °F 30.01 in Calm     71% 0.00 in 0 W/m2
18:45 45.9 °F 36.7 °F 30.00 in ESE 1 mph 1 mph 70% 0.00 in 0 W/m2
18:50 45.8 °F 36.2 °F 30.01 in NE 1 mph 1 mph 69% 0.00 in 0 W/m2
18:55 45.8 °F 36.9 °F 30.00 in SE 1 mph 1 mph 71% 0.00 in 0 W/m2
19:00 45.7 °F 36.8 °F 30.00 in Calm   1 mph 71% 0.00 in 0 W/m2
19:05 45.6 °F 36.4 °F 30.00 in Calm   1 mph 70% 0.00 in 0 W/m2
19:10 45.5 °F 36.6 °F 30.00 in Calm     71% 0.00 in 0 W/m2
19:15 45.6 °F 36.7 °F 30.00 in East 1 mph 2 mph 71% 0.00 in 0 W/m2
19:20 45.7 °F 36.5 °F 30.01 in South 1 mph 1 mph 70% 0.00 in 0 W/m2
19:25 45.7 °F 36.1 °F 30.01 in ESE 1 mph 2 mph 69% 0.00 in 0 W/m2
19:30 45.8 °F 36.6 °F 30.01 in East 1 mph 1 mph 70% 0.00 in 0 W/m2
19:35 45.9 °F 36.7 °F 30.01 in ESE 1 mph 2 mph 70% 0.00 in 0 W/m2
19:40 46 °F 36.4 °F 30.01 in ESE 1 mph 1 mph 69% 0.00 in 0 W/m2
19:45 46 °F 36.8 °F 30.01 in South 1 mph 2 mph 70% 0.00 in 0 W/m2
19:50 45.9 °F 36.3 °F 30.01 in North 1 mph 1 mph 69% 0.00 in 0 W/m2
19:55 46 °F 36.4 °F 30.01 in West 1 mph 1 mph 69% 0.00 in 0 W/m2
20:00 45.9 °F 36.3 °F 30.01 in West 1 mph 1 mph 69% 0.00 in 0 W/m2
20:05 46 °F 36.8 °F 30.01 in WSW 1 mph 1 mph 70% 0.00 in 0 W/m2
20:10 46 °F 36.8 °F 30.01 in SSE 1 mph 1 mph 70% 0.00 in 0 W/m2
20:15 45.9 °F 36.3 °F 30.00 in ENE 1 mph 1 mph 69% 0.00 in 0 W/m2
20:20 45.9 °F 35.9 °F 30.00 in NW 1 mph 1 mph 68% 0.00 in 0 W/m2
20:25 45.9 °F 36.7 °F 30.00 in SSE 1 mph 1 mph 70% 0.00 in 0 W/m2
20:30 45.9 °F 36.7 °F 30.01 in North 1 mph 1 mph 70% 0.00 in 0 W/m2
20:35 46 °F 36.8 °F 30.00 in WSW 1 mph 1 mph 70% 0.00 in 0 W/m2
20:40 46 °F 36.8 °F 30.00 in East 1 mph 1 mph 70% 0.00 in 0 W/m2
20:45 46 °F 36.8 °F 30.00 in East 1 mph 1 mph 70% 0.00 in 0 W/m2
20:50 46 °F 36.8 °F 30.00 in North 1 mph 1 mph 70% 0.00 in 0 W/m2
20:55 46 °F 36.4 °F 30.00 in SW 1 mph 1 mph 69% 0.00 in 0 W/m2
21:00 46 °F 37.5 °F 30.00 in NNW 1 mph 2 mph 72% 0.00 in 0 W/m2
21:05 46 °F 36.8 °F 30.00 in North 1 mph 2 mph 70% 0.00 in 0 W/m2
21:10 46 °F 37.1 °F 30.00 in North 1 mph 1 mph 71% 0.00 in 0 W/m2
21:20 46 °F 37.1 °F 30.01 in NE 1 mph 1 mph 71% 0.00 in 0 W/m2
21:25 46 °F 37.1 °F 30.00 in SSE 1 mph 1 mph 71% 0.00 in 0 W/m2
21:30 45.9 °F 37 °F 30.00 in West 1 mph 1 mph 71% 0.00 in 0 W/m2
21:35 46 °F 36.8 °F 30.01 in North 1 mph 1 mph 70% 0.00 in 0 W/m2
21:40 46 °F 36.8 °F 30.00 in North 1 mph 1 mph 70% 0.00 in 0 W/m2
21:45 46 °F 37.1 °F 30.01 in NE 1 mph 2 mph 71% 0.00 in 0 W/m2
21:50 46 °F 37.5 °F 30.00 in West 1 mph 1 mph 72% 0.00 in 0 W/m2
21:55 46 °F 36.8 °F 30.00 in WNW 1 mph 1 mph 70% 0.00 in 0 W/m2
22:00 46 °F 36.8 °F 30.00 in South 1 mph 2 mph 70% 0.00 in 0 W/m2
22:05 46 °F 36.8 °F 30.00 in SE 1 mph 2 mph 70% 0.00 in 0 W/m2
22:10 46 °F 37.1 °F 30.00 in NE 1 mph 1 mph 71% 0.00 in 0 W/m2
22:15 46.1 °F 37.6 °F 30.00 in NE 1 mph 1 mph 72% 0.00 in 0 W/m2
22:20 46.1 °F 37.2 °F 30.00 in NE 1 mph 2 mph 71% 0.00 in 0 W/m2
22:25 46.1 °F 36.9 °F 30.00 in NE 1 mph 2 mph 70% 0.00 in 0 W/m2
22:30 46.2 °F 37 °F 30.00 in North 1 mph 2 mph 70% 0.00 in 0 W/m2
22:35 46.2 °F 37 °F 30.00 in WNW 1 mph 2 mph 70% 0.00 in 0 W/m2
22:40 46.2 °F 37 °F 30.00 in NNE 1 mph 1 mph 70% 0.00 in 0 W/m2
22:45 46.1 °F 36.5 °F 30.00 in SW 1 mph 1 mph 69% 0.00 in 0 W/m2
22:50 46.2 °F 37 °F 30.00 in NE 1 mph 2 mph 70% 0.00 in 0 W/m2
22:55 46.2 °F 37.3 °F 30.00 in NNW 1 mph 2 mph 71% 0.00 in 0 W/m2
23:00 46.1 °F 37.6 °F 30.00 in NW 1 mph 1 mph 72% 0.00 in 0 W/m2
23:05 46 °F 36.4 °F 30.00 in North 1 mph 1 mph 69% 0.00 in 0 W/m2
23:10 45.9 °F 36.7 °F 30.00 in NW 1 mph 2 mph 70% 0.00 in 0 W/m2
23:15 45.9 °F 35.9 °F 30.00 in NE 1 mph 2 mph 68% 0.00 in 0 W/m2
23:20 46 °F 36 °F 29.99 in NNE 1 mph 2 mph 68% 0.00 in 0 W/m2
23:25 46.1 °F 36.1 °F 29.99 in WNW 1 mph 2 mph 68% 0.00 in 0 W/m2
23:30 46.2 °F 38 °F 29.99 in ESE 1 mph 2 mph 73% 0.00 in 0 W/m2
23:35 46.1 °F 38.3 °F 29.99 in SE 1 mph 2 mph 74% 0.00 in 0 W/m2
23:40 45.9 °F 38.8 °F 29.99 in SE 1 mph 1 mph 76% 0.00 in 0 W/m2
23:45 45.8 °F 38.7 °F 29.98 in ESE 1 mph 1 mph 76% 0.00 in 0 W/m2
23:50 45.6 °F 38.1 °F 29.98 in SSE 1 mph 1 mph 75% 0.00 in 0 W/m2
23:55 45.4 °F 38.3 °F 29.98 in SE 1 mph 1 mph 76% 0.00 in 0 W/m2
Sand Point, Michigan, USA
Compliments of Weather Underground - 2 mb